Time,TemperatureF,DewpointF,PressureIn,WindDirection,WindDirectionDegrees,WindSpeedMPH,WindSpeedGustMPH,Humidity,HourlyPrecipIn,Conditions,Clouds,dailyrainin,SoftwareType,DateUTC
2013-01-14 08:05:00,47.4,47.0,30.04,SSW,195,0.0,-999.0,98,-99.99,,,0.02,weatherlink.com 1.10,2013-01-14 13:05:00,
2013-01-14 08:20:00,47.6,47.0,30.04,SSW,195,0.0,-999.0,98,-99.99,,,0.02,weatherlink.com 1.10,2013-01-14 13:20:00,
2013-01-14 08:36:00,47.5,47.0,30.05,SSW,195,0.0,-999.0,98,-99.99,,,0.02,weatherlink.com 1.10,2013-01-14 13:36:00,
2013-01-14 08:51:00,47.5,47.0,30.06,SSW,195,0.0,-999.0,98,-99.99,,,0.02,weatherlink.com 1.10,2013-01-14 13:51:00,
2013-01-14 09:06:00,47.7,47.0,30.07,SSW,195,0.0,-999.0,98,-99.99,,,0.02,weatherlink.com 1.10,2013-01-14 14:06:00,
2013-01-14 09:21:00,48.0,48.0,30.07,SSW,195,0.0,-999.0,98,-99.99,,,0.02,weatherlink.com 1.10,2013-01-14 14:21:00,
2013-01-14 09:36:00,48.7,48.0,30.07,SSW,195,0.0,-999.0,98,-99.99,,,0.02,weatherlink.com 1.10,2013-01-14 14:36:00,
2013-01-14 09:51:00,49.4,49.0,30.07,SSW,195,0.0,-999.0,98,-99.99,,,0.02,weatherlink.com 1.10,2013-01-14 14:51:00,
2013-01-14 10:06:00,50.0,50.0,30.07,SSW,195,0.0,-999.0,98,-99.99,,,0.02,weatherlink.com 1.10,2013-01-14 15:06:00,
2013-01-14 10:21:00,50.4,50.0,30.06,SSW,195,0.0,-999.0,98,-99.99,,,0.02,weatherlink.com 1.10,2013-01-14 15:21:00,
2013-01-14 10:36:00,50.8,51.0,30.07,SSW,195,0.0,-999.0,99,-99.99,,,0.02,weatherlink.com 1.10,2013-01-14 15:36:00,
2013-01-14 10:51:00,50.9,50.0,30.07,SSW,195,0.0,-999.0,98,-99.99,,,0.02,weatherlink.com 1.10,2013-01-14 15:51:00,
2013-01-14 11:06:00,51.3,51.0,30.07,SSW,195,0.0,-999.0,99,-99.99,,,0.02,weatherlink.com 1.10,2013-01-14 16:06:00,
2013-01-14 11:21:00,51.8,51.0,30.07,SSW,195,0.0,-999.0,98,-99.99,,,0.02,weatherlink.com 1.10,2013-01-14 16:21:00,
2013-01-14 11:37:00,52.2,52.0,30.08,SSW,195,0.0,-999.0,98,-99.99,,,0.02,weatherlink.com 1.10,2013-01-14 16:37:00,
2013-01-14 11:52:00,53.2,53.0,30.08,SSW,195,0.0,-999.0,99,-99.99,,,0.00,weatherlink.com 1.10,2013-01-14 16:52:00,
2013-01-14 12:08:00,53.7,53.0,30.07,SSW,195,0.0,-999.0,98,-99.99,,,0.00,weatherlink.com 1.10,2013-01-14 17:08:00,
2013-01-14 12:22:00,53.8,53.0,30.08,NW,326,7.0,-999.0,96,-99.99,,,0.00,weatherlink.com 1.10,2013-01-14 17:22:00,
2013-01-14 12:37:00,54.2,50.0,30.08,West,271,5.0,-999.0,85,-99.99,,,0.00,weatherlink.com 1.10,2013-01-14 17:37:00,
2013-01-14 12:52:00,54.8,50.0,30.10,NW,323,6.0,-999.0,83,-99.99,,,0.00,weatherlink.com 1.10,2013-01-14 17:52:00,
2013-01-14 13:07:00,54.7,49.0,30.09,NNW,330,6.0,-999.0,80,-99.99,,,0.00,weatherlink.com 1.10,2013-01-14 18:07:00,
2013-01-14 13:22:00,53.9,50.0,30.10,NNW,341,4.0,-999.0,85,-99.99,,,0.00,weatherlink.com 1.10,2013-01-14 18:22:00,
2013-01-14 13:37:00,53.1,49.0,30.10,NW,316,6.0,-999.0,86,-99.99,,,0.00,weatherlink.com 1.10,2013-01-14 18:37:00,
2013-01-14 13:52:00,52.6,48.0,30.11,North,351,0.0,-999.0,85,-99.99,,,0.00,weatherlink.com 1.10,2013-01-14 18:52:00,
2013-01-14 14:08:00,52.4,48.0,30.11,NNW,332,0.0,-999.0,86,-99.99,,,0.00,weatherlink.com 1.10,2013-01-14 19:08:00,
2013-01-14 14:23:00,52.0,48.0,30.12,NNW,339,4.0,-999.0,85,-99.99,,,0.00,weatherlink.com 1.10,2013-01-14 19:23:00,
2013-01-14 14:38:00,51.6,47.0,30.13,North,350,4.0,-999.0,83,-99.99,,,0.00,weatherlink.com 1.10,2013-01-14 19:38:00,
2013-01-14 14:53:00,51.3,46.0,30.15,NNE,16,2.0,-999.0,81,-99.99,,,0.00,weatherlink.com 1.10,2013-01-14 19:53:00,
2013-01-14 15:08:00,50.9,44.0,30.14,NW,315,2.0,-999.0,78,-99.99,,,0.00,weatherlink.com 1.10,2013-01-14 20:08:00,
2013-01-14 15:23:00,50.7,44.0,30.14,North,5,2.0,-999.0,78,-99.99,,,0.00,weatherlink.com 1.10,2013-01-14 20:23:00,
2013-01-14 15:38:00,50.3,43.0,30.15,NNW,333,6.0,-999.0,75,-99.99,,,0.00,weatherlink.com 1.10,2013-01-14 20:38:00,
2013-01-14 15:53:00,49.9,42.0,30.16,NNW,343,4.0,-999.0,73,-99.99,,,0.00,weatherlink.com 1.10,2013-01-14 20:53:00,
2013-01-14 16:08:00,49.3,41.0,30.17,North,355,4.0,-999.0,72,-99.99,,,0.00,weatherlink.com 1.10,2013-01-14 21:08:00,
2013-01-14 16:24:00,48.8,40.0,30.18,NNW,340,1.0,-999.0,72,-99.99,,,0.00,weatherlink.com 1.10,2013-01-14 21:24:00,
2013-01-14 16:39:00,48.0,39.0,30.18,NNW,340,0.0,-999.0,72,-99.99,,,0.00,weatherlink.com 1.10,2013-01-14 21:39:00,
2013-01-14 16:54:00,47.2,39.0,30.18,NNW,338,2.0,-999.0,72,-99.99,,,0.00,weatherlink.com 1.10,2013-01-14 21:54:00,
2013-01-14 17:09:00,46.3,38.0,30.18,North,360,1.0,-999.0,72,-99.99,,,0.00,weatherlink.com 1.10,2013-01-14 22:09:00,
2013-01-14 17:24:00,45.7,37.0,30.18,NNW,346,2.0,-999.0,73,-99.99,,,0.00,weatherlink.com 1.10,2013-01-14 22:24:00,
2013-01-14 17:39:00,45.0,37.0,30.19,NE,53,0.0,-999.0,73,-99.99,,,0.00,weatherlink.com 1.10,2013-01-14 22:39:00,
2013-01-14 17:54:00,44.5,36.0,30.18,NE,36,1.0,-999.0,72,-99.99,,,0.00,weatherlink.com 1.10,2013-01-14 22:54:00,
2013-01-14 18:09:00,44.2,36.0,30.20,North,355,0.0,-999.0,72,-99.99,,,0.00,weatherlink.com 1.10,2013-01-14 23:09:00,
2013-01-14 18:24:00,43.9,35.0,30.21,North,355,2.0,-999.0,70,-99.99,,,0.00,weatherlink.com 1.10,2013-01-14 23:24:00,
2013-01-14 18:39:00,43.6,34.0,30.21,North,355,2.0,-999.0,69,-99.99,,,0.00,weatherlink.com 1.10,2013-01-14 23:39:00,
2013-01-14 18:55:00,43.1,34.0,30.21,North,355,0.0,-999.0,69,-99.99,,,0.00,weatherlink.com 1.10,2013-01-14 23:55:00,
2013-01-14 19:10:00,42.8,33.0,30.23,NNW,329,1.0,-999.0,69,-99.99,,,0.00,weatherlink.com 1.10,2013-01-15 00:10:00,
2013-01-14 19:25:00,42.6,33.0,30.24,NNW,348,4.0,-999.0,68,-99.99,,,0.00,weatherlink.com 1.10,2013-01-15 00:25:00,
2013-01-14 19:40:00,42.2,33.0,30.27,North,10,0.0,-999.0,69,-99.99,,,0.00,weatherlink.com 1.10,2013-01-15 00:40:00,
2013-01-14 19:55:00,41.7,31.0,30.28,NNE,18,0.0,-999.0,67,-99.99,,,0.00,weatherlink.com 1.10,2013-01-15 00:55:00,
2013-01-14 20:10:00,40.9,31.0,30.29,NE,44,1.0,-999.0,69,-99.99,,,0.00,weatherlink.com 1.10,2013-01-15 01:10:00,
2013-01-14 20:25:00,40.5,31.0,30.29,NNE,12,1.0,-999.0,70,-99.99,,,0.00,weatherlink.com 1.10,2013-01-15 01:25:00,
2013-01-14 20:40:00,40.1,32.0,30.29,North,9,1.0,-999.0,73,-99.99,,,0.00,weatherlink.com 1.10,2013-01-15 01:40:00,
2013-01-14 20:55:00,39.1,32.0,30.27,North,9,2.0,-999.0,76,-99.99,,,0.00,weatherlink.com 1.10,2013-01-15 01:55:00,
2013-01-14 21:11:00,38.0,32.0,30.27,NNW,346,1.0,-999.0,79,-99.99,,,0.01,weatherlink.com 1.10,2013-01-15 02:11:00,
2013-01-14 21:26:00,37.4,31.0,30.30,NNW,338,4.0,-999.0,79,-99.99,,,0.02,weatherlink.com 1.10,2013-01-15 02:26:00,
2013-01-14 21:41:00,36.8,33.0,30.29,NNW,338,0.0,-999.0,86,-99.99,,,0.02,weatherlink.com 1.10,2013-01-15 02:41:00,
2013-01-14 21:56:00,36.3,33.0,30.31,NNW,338,0.0,-999.0,86,-99.99,,,0.03,weatherlink.com 1.10,2013-01-15 02:56:00,
2013-01-14 22:11:00,36.2,33.0,30.30,NNW,338,0.0,-999.0,89,-99.99,,,0.03,weatherlink.com 1.10,2013-01-15 03:11:00,
2013-01-14 22:26:00,36.1,34.0,30.31,NNW,338,0.0,-999.0,91,-99.99,,,0.03,weatherlink.com 1.10,2013-01-15 03:26:00,